ONEWEB-0237 (48770 NORAD) Tracking and Keplerian Element Data

This shows tracking and keplerian element data for the satellite.

Feedback or suggestion? Click here.




ElementValue
Catalog48770
NameONEWEB-0237
Epoch Orbit193
Epoch Day170.58334491
Epoch Year2021
RAAN268.874
Inclination87.4044
Eccentricity0.0010233
Argument of Perigee174.8564
Mean Anonmoly211.4125
Mean Motion15.31106669
Decay Rate-0.00889625
L11 48770U 21045D 21170.58334491 -.00889625 00000-0 -32210-1 0 9995
L22 48770 87.4044 268.8740 0010233 174.8564 211.4125 15.31106669 1931

Live tracking and technical data element details for ONEWEB-0237 (NORAD 48770). ONEWEB-0237 can be tracked NOW for your location showing map with azimuth and elevation plus other details from your city location.

Track the satellite on the map from your city or location and see movement details for azimuth, elevation, latitude, longitude, range, height, and movement on the map or in text.







IsCatalogInMostPopularTable: catalog: 48770, numindb: 3
Update: records affected: 1



GetName: 48770 ONEWEB-0237

Hit Count: updated at: Mon, 21 Jun 2021 03:30:04 GMT